星链-35714(STARLINK-35714)

导读 | 豆包AI

STARLINK-35714是美国SpaceX公司星链星座的一员,于2025年10月28日发射入轨,属于星链网络扩容卫星。星链项目旨在构建全球卫星互联网星座,为全球用户提供高速宽带服务,尤其为偏远地区、海洋和航空场景提供连接。作为低轨卫星,它运行在近地轨道,依托大规模星座组网实现全球覆盖。目前已入轨运营近五个月,属于美国太空部署的通信卫星星座节点,持续参与全球卫星互联网服务组网。

基本信息
目录编号:
66214
目录名称:
STARLINK-35714
国际标识:
2025-244J
轨道中心:
EARTH
卫星名称:
星链-35714
卫星全名:
星链-35714(STARLINK-35714)
卫星状态:
在轨 (已飞行209 天)
发射日期:
2025-10-28 UTC
国别 :
美国 (US)
星等 :
--
轨道信息
数据来源 国际轨道数据 AOE轨道数据
星历时间 2026-05-25T07:20:29+0800
13小时前
查看轨道信息
2026-05-23T04:00:00+0800
2天前
查看轨道信息
半长轴 6853.329km 6853.389km
偏心率 0.0001277 0.0001096
轨道倾角 53.160° 53.160°
近地点辐角 77.020° 79.724°
升交点赤经 235.951° 245.886°
平近点角 283.095° 9.450°
近地点 474.316km 474.5km
远地点 476.068km 476.004km
周期 94.105分钟 94.106分钟
每日圈数 15.30208 15.301879
详细信息
固有亮度:
5
最大亮度:
2.5
卫星平台:
Starlink V1.0
覆盖范围:
全球
运营商:
太空探索技术公司
运营商所在国:
美国
制造商(研发单位):
太空探索技术公司
制造商所在国:
美国
使用方式:
暂无
卫星简介
Starlink 计划是 SpaceX 推出的全球卫星互联网项目,通过发射低轨道卫星,为全球尤其是偏远地区提供高速、低延迟的互联网服务。自 2019 年起,Starlink 已部署数千颗卫星,旨在缩小全球数字鸿沟,推动互联网普及。该项目还为军事、航空等行业提供通信支持,带来广泛经济效益。
2D轨道图
3D轨道图
轨道高度分析图
轨道倾角分析图
轨道综合分析图
查看轨道综合分析图